Precipitable_Water
1.11 1.12 1.15 1.14 1.11 1.07 1.08 1.05 1.02 0.98 0.93 0.92 0.93 0.94 0.93 0.91 0.89 0.88 0.87 0.82 0.83 0.83 0.81 0.78 0.77 0.76 0.75 0.74 0.72 0.73 0.73 0.74 0.78 0.79 0.76 0.74 0.78 0.79 0.80 0.75 0.72 0.76 0.75 0.70 0.66 0.61 0.58 0.57 0.59 0.62 0.63 0.60 0.60 0.60 0.58 0.56 0.56 0.60 0.63 0.64 0.61 0.61 0.59 0.55 0.49 0.45 0.49 0.53 0.49 0.51 0.57 0.59 0.58 0.59 0.59 0.61 0.67 0.68 0.68 0.67 0.65 0.63 0.63 0.64 0.64
1.18 1.14 1.16 1.16 1.16 1.13 1.11 1.09 1.05 1.00 0.96 0.96 0.95 0.96 0.94 0.93 0.92 0.90 0.84 0.83 0.84 0.84 0.81 0.79 0.79 0.77 0.73 0.73 0.74 0.77 0.79 0.80 0.87 0.88 0.81 0.79 0.82 0.90 0.90 0.87 0.85 0.83 0.83 0.76 0.80 0.78 0.70 0.62 0.60 0.64 0.65 0.64 0.67 0.67 0.66 0.64 0.63 0.61 0.63 0.64 0.64 0.64 0.64 0.59 0.56 0.53 0.51 0.56 0.54 0.58 0.59 0.63 0.58 0.64 0.64 0.64 0.67 0.69 0.68 0.68 0.68 0.66 0.66 0.67 0.67
1.22 1.22 1.20 1.24 1.23 1.20 1.13 1.11 1.10 1.05 0.99 0.98 0.97 0.95 0.92 0.91 0.93 0.89 0.85 0.83 0.85 0.83 0.81 0.79 0.78 0.79 0.78 0.77 0.76 0.77 0.78 0.81 0.86 0.86 0.87 0.87 0.89 0.94 0.94 0.91 0.89 0.89 0.87 0.86 0.84 0.84 0.82 0.82 0.77 0.76 0.74 0.69 0.70 0.70 0.70 0.68 0.67 0.67 0.69 0.71 0.69 0.70 0.69 0.70 0.67 0.64 0.63 0.63 0.65 0.64 0.65 0.69 0.66 0.66 0.70 0.71 0.72 0.73 0.71 0.71 0.70 0.70 0.70 0.70 0.69
1.22 1.23 1.25 1.23 1.19 1.21 1.17 1.16 1.07 1.03 0.98 0.95 0.93 0.92 0.95 0.95 0.91 0.88 0.84 0.82 0.80 0.81 0.79 0.79 0.79 0.82 0.80 0.81 0.81 0.83 0.85 0.87 0.89 0.90 0.92 0.93 0.94 0.93 0.94 0.93 0.93 0.92 0.91 0.89 0.92 0.93 0.90 0.88 0.90 0.88 0.85 0.80 0.77 0.75 0.75 0.74 0.74 0.74 0.74 0.76 0.77 0.79 0.81 0.78 0.76 0.73 0.70 0.67 0.72 0.73 0.76 0.75 0.74 0.74 0.74 0.75 0.75 0.75 0.74 0.73 0.75 0.72 0.71 0.71 0.72
1.22 1.15 1.13 1.14 1.12 1.11 1.12 1.08 1.05 0.98 0.92 0.89 0.90 0.86 0.93 0.91 0.86 0.82 0.80 0.77 0.78 0.78 0.79 0.81 0.83 0.82 0.81 0.84 0.84 0.84 0.89 0.92 0.95 0.99 1.00 0.98 0.98 0.96 0.96 0.97 0.99 1.00 1.00 0.98 0.97 0.97 0.96 0.95 0.95 0.95 0.92 0.88 0.87 0.83 0.82 0.78 0.79 0.79 0.79 0.81 0.81 0.83 0.86 0.87 0.86 0.83 0.78 0.76 0.76 0.79 0.81 0.80 0.77 0.75 0.76 0.74 0.75 0.76 0.75 0.72 0.71 0.72 0.73 0.76 0.76
1.12 1.15 1.15 1.10 1.06 1.02 0.99 0.99 0.99 0.97 0.99 0.99 0.95 0.87 0.83 0.79 0.77 0.77 0.77 0.75 0.77 0.81 0.80 0.79 0.80 0.82 0.81 0.83 0.87 0.91 0.96 1.01 1.02 1.02 1.02 1.03 1.00 0.99 0.99 0.98 1.01 1.03 1.04 1.03 1.03 1.05 1.05 1.05 1.06 1.03 0.99 0.97 0.95 0.95 0.93 0.89 0.85 0.84 0.83 0.86 0.88 0.88 0.87 0.87 0.88 0.86 0.82 0.78 0.75 0.72 0.76 0.73 0.71 0.71 0.73 0.74 0.71 0.70 0.71 0.74 0.75 0.76 0.76 0.75 0.76
1.06 1.04 1.04 0.97 0.93 0.97 1.01 0.98 1.00 1.00 0.98 1.03 1.04 0.96 0.85 0.77 0.75 0.73 0.78 0.75 0.73 0.77 0.81 0.80 0.81 0.80 0.82 0.83 0.86 0.90 0.94 1.03 1.07 1.06 1.07 1.07 1.05 1.00 0.96 0.98 1.01 1.04 1.06 1.04 1.03 1.03 1.02 1.05 1.07 1.08 1.04 1.03 1.01 1.00 0.99 0.96 0.90 0.84 0.82 0.81 0.82 0.81 0.81 0.81 0.84 0.83 0.82 0.79 0.78 0.77 0.76 0.77 0.72 0.67 0.73 0.74 0.73 0.71 0.66 0.65 0.65 0.70 0.71 0.68 0.65
1.07 1.10 1.06 0.97 0.94 0.98 1.02 1.05 1.04 1.09 1.12 1.11 1.10 1.09 1.01 0.90 0.82 0.80 0.81 0.79 0.78 0.82 0.83 0.83 0.85 0.84 0.85 0.87 0.90 0.93 0.96 1.01 1.02 1.05 1.06 1.06 1.04 1.02 0.99 0.95 0.93 0.96 0.97 0.99 1.00 0.98 0.99 1.03 1.02 1.05 1.03 1.04 1.03 1.02 1.00 0.95 0.91 0.88 0.90 0.86 0.84 0.82 0.80 0.80 0.78 0.76 0.75 0.73 0.70 0.69 0.71 0.69 0.71 0.73 0.71 0.69 0.64 0.64 0.66 0.64 0.59 0.61 0.62 0.64 0.64
1.05 1.08 1.11 1.07 1.00 1.03 1.06 1.10 1.09 1.11 1.14 1.10 1.10 1.12 1.11 1.06 0.97 0.90 0.85 0.84 0.85 0.87 0.87 0.87 0.86 0.85 0.87 0.91 0.93 0.97 0.99 0.99 0.99 1.00 1.00 0.99 1.00 0.98 0.96 0.93 0.91 0.89 0.91 0.95 0.98 0.98 0.99 1.01 1.02 1.04 1.05 1.04 1.04 1.04 1.03 1.01 0.95 0.88 0.87 0.86 0.83 0.80 0.76 0.74 0.72 0.68 0.65 0.63 0.63 0.67 0.64 0.62 0.63 0.64 0.63 0.62 0.61 0.59 0.64 0.64 0.60 0.61 0.60 0.59 0.61
1.03 1.04 1.00 1.04 1.08 1.08 1.06 1.07 1.07 1.05 1.05 1.02 1.00 1.07 1.10 1.06 1.01 0.98 0.95 0.94 0.93 0.93 0.92 0.92 0.90 0.90 0.91 0.93 0.96 1.00 1.00 0.99 0.99 1.01 1.03 1.03 1.02 0.99 0.95 0.93 0.93 0.92 0.92 0.91 0.93 0.96 0.98 0.98 0.99 1.01 1.01 1.01 0.99 0.99 0.99 0.99 0.97 0.90 0.84 0.80 0.77 0.75 0.72 0.69 0.67 0.64 0.60 0.56 0.56 0.59 0.57 0.57 0.60 0.62 0.59 0.61 0.64 0.65 0.62 0.61 0.57 0.58 0.58 0.56 0.58
1.03 1.02 0.98 1.01 1.05 1.09 1.08 1.07 1.08 1.06 1.04 1.04 1.04 1.03 1.01 1.04 1.03 1.01 1.00 0.99 0.98 0.97 0.95 0.93 0.94 0.96 0.95 0.95 0.97 0.99 0.98 0.98 0.98 0.99 1.02 1.03 1.02 0.98 0.92 0.91 0.92 0.90 0.89 0.89 0.90 0.95 0.99 1.01 1.00 0.99 0.96 0.94 0.93 0.91 0.90 0.87 0.84 0.81 0.77 0.73 0.70 0.64 0.59 0.56 0.56 0.56 0.54 0.51 0.54 0.55 0.56 0.55 0.58 0.60 0.58 0.59 0.61 0.61 0.59 0.58 0.56 0.55 0.52 0.48 0.44
0.96 0.96 0.99 1.04 1.08 1.05 1.05 1.06 1.06 1.06 1.05 1.03 1.02 1.02 1.03 1.06 1.06 1.04 1.03 1.01 1.00 1.00 0.97 0.96 0.97 0.99 0.98 0.97 0.97 0.97 0.96 0.96 0.96 0.96 0.95 0.96 0.96 0.95 0.94 0.93 0.91 0.88 0.88 0.86 0.89 0.91 0.92 0.92 0.92 0.88 0.85 0.85 0.82 0.81 0.78 0.75 0.71 0.66 0.62 0.60 0.60 0.60 0.61 0.58 0.54 0.51 0.51 0.49 0.50 0.52 0.53 0.54 0.58 0.59 0.58 0.57 0.56 0.57 0.58 0.56 0.55 0.52 0.50 0.48 0.47
0.92 0.92 0.94 0.99 1.00 1.02 1.04 1.02 1.00 1.00 1.02 1.03 1.04 1.03 0.99 1.03 1.06 1.04 1.02 1.03 1.02 0.98 0.96 0.96 0.96 0.98 0.97 0.95 0.95 0.95 0.94 0.96 0.97 0.96 0.96 0.96 0.96 0.96 0.95 0.95 0.91 0.89 0.87 0.86 0.87 0.88 0.89 0.87 0.85 0.86 0.85 0.83 0.79 0.75 0.70 0.66 0.64 0.61 0.58 0.56 0.57 0.58 0.57 0.58 0.59 0.57 0.56 0.53 0.52 0.52 0.54 0.54 0.54 0.57 0.60 0.59 0.60 0.55 0.55 0.54 0.53 0.52 0.50 0.47 0.45
0.88 0.91 0.95 0.98 0.99 1.00 0.99 0.97 0.97 1.01 1.03 1.03 1.03 1.01 1.00 0.97 0.98 0.99 1.01 1.03 1.01 0.99 0.97 0.95 0.95 0.94 0.94 0.93 0.92 0.92 0.93 0.95 0.94 0.91 0.90 0.91 0.92 0.90 0.90 0.90 0.87 0.86 0.87 0.87 0.87 0.85 0.85 0.86 0.83 0.76 0.75 0.73 0.74 0.74 0.70 0.68 0.66 0.62 0.58 0.55 0.54 0.54 0.55 0.57 0.59 0.60 0.60 0.57 0.56 0.54 0.59 0.60 0.55 0.56 0.58 0.59 0.55 0.53 0.52 0.51 0.51 0.48 0.46 0.45 0.47
0.88 0.88 0.87 0.89 0.96 0.93 0.93 0.97 0.98 1.00 1.00 1.00 0.98 0.97 0.95 0.93 0.91 0.91 0.92 0.92 0.91 0.92 0.93 0.92 0.92 0.93 0.94 0.93 0.90 0.88 0.87 0.86 0.85 0.85 0.86 0.88 0.84 0.83 0.85 0.85 0.85 0.85 0.84 0.82 0.81 0.81 0.81 0.82 0.77 0.71 0.71 0.71 0.71 0.72 0.70 0.69 0.66 0.60 0.54 0.50 0.50 0.51 0.52 0.52 0.52 0.53 0.54 0.56 0.57 0.57 0.58 0.59 0.58 0.57 0.57 0.58 0.55 0.53 0.51 0.49 0.48 0.46 0.46 0.46 0.43
0.76 0.87 0.94 0.96 0.93 0.88 0.88 0.90 0.89 0.93 0.95 0.90 0.89 0.86 0.85 0.85 0.83 0.85 0.87 0.88 0.90 0.90 0.89 0.89 0.87 0.88 0.88 0.86 0.83 0.80 0.81 0.81 0.79 0.78 0.77 0.74 0.72 0.74 0.74 0.74 0.73 0.72 0.71 0.72 0.72 0.73 0.73 0.71 0.68 0.68 0.69 0.65 0.64 0.64 0.65 0.66 0.64 0.57 0.52 0.51 0.52 0.54 0.54 0.55 0.56 0.56 0.56 0.56 0.56 0.56 0.56 0.57 0.56 0.55 0.55 0.54 0.53 0.53 0.52 0.51 0.48 0.45 0.39 0.34 0.30
0.64 0.66 0.68 0.71 0.73 0.83 0.91 0.90 0.90 0.87 0.87 0.83 0.81 0.82 0.84 0.87 0.87 0.89 0.84 0.84 0.82 0.82 0.81 0.82 0.83 0.82 0.80 0.79 0.76 0.76 0.75 0.75 0.73 0.70 0.67 0.62 0.60 0.59 0.61 0.66 0.65 0.66 0.66 0.67 0.69 0.71 0.72 0.72 0.70 0.68 0.67 0.65 0.63 0.62 0.61 0.57 0.55 0.53 0.53 0.54 0.55 0.54 0.54 0.56 0.57 0.56 0.56 0.55 0.54 0.53 0.52 0.52 0.52 0.52 0.52 0.51 0.49 0.47 0.44 0.39 0.34 0.34 0.29 0.26 0.26
0.67 0.66 0.66 0.67 0.68 0.69 0.72 0.76 0.86 0.88 0.89 0.85 0.82 0.81 0.81 0.83 0.83 0.85 0.82 0.79 0.78 0.78 0.79 0.80 0.81 0.81 0.77 0.74 0.73 0.70 0.68 0.68 0.64 0.58 0.53 0.48 0.47 0.51 0.59 0.62 0.61 0.59 0.58 0.58 0.62 0.63 0.64 0.67 0.68 0.64 0.59 0.56 0.53 0.50 0.48 0.49 0.47 0.48 0.52 0.54 0.54 0.55 0.57 0.58 0.58 0.56 0.56 0.56 0.54 0.54 0.53 0.51 0.49 0.48 0.46 0.44 0.43 0.41 0.37 0.32 0.33 0.32 0.28 0.27 0.25
0.68 0.69 0.70 0.71 0.70 0.70 0.71 0.70 0.69 0.70 0.75 0.83 0.83 0.83 0.83 0.81 0.83 0.85 0.82 0.80 0.78 0.78 0.78 0.74 0.72 0.72 0.71 0.70 0.67 0.65 0.63 0.60 0.56 0.49 0.44 0.44 0.48 0.55 0.60 0.61 0.58 0.57 0.55 0.51 0.52 0.52 0.52 0.54 0.55 0.54 0.53 0.49 0.45 0.45 0.46 0.46 0.46 0.47 0.52 0.55 0.55 0.54 0.56 0.59 0.58 0.57 0.55 0.54 0.54 0.53 0.51 0.49 0.47 0.46 0.45 0.45 0.43 0.42 0.41 0.39 0.38 0.34 0.30 0.30 0.30
0.70 0.69 0.70 0.70 0.70 0.70 0.70 0.71 0.71 0.72 0.73 0.74 0.76 0.80 0.87 0.85 0.82 0.81 0.79 0.78 0.75 0.73 0.73 0.72 0.70 0.70 0.70 0.68 0.65 0.62 0.56 0.52 0.47 0.43 0.42 0.46 0.51 0.56 0.61 0.61 0.60 0.60 0.61 0.60 0.57 0.57 0.54 0.48 0.49 0.50 0.49 0.46 0.47 0.48 0.47 0.48 0.49 0.51 0.52 0.53 0.53 0.53 0.58 0.57 0.56 0.55 0.55 0.52 0.49 0.48 0.46 0.46 0.45 0.45 0.44 0.44 0.44 0.43 0.43 0.43 0.41 0.39 0.36 0.35 0.33
0.72 0.71 0.70 0.70 0.70 0.70 0.71 0.72 0.72 0.73 0.75 0.76 0.77 0.77 0.78 0.76 0.77 0.81 0.79 0.78 0.77 0.76 0.74 0.74 0.73 0.72 0.72 0.71 0.66 0.61 0.55 0.47 0.43 0.41 0.41 0.42 0.45 0.48 0.58 0.59 0.62 0.61 0.60 0.59 0.57 0.55 0.55 0.57 0.58 0.57 0.53 0.53 0.54 0.51 0.49 0.48 0.49 0.49 0.50 0.50 0.51 0.53 0.56 0.53 0.52 0.51 0.49 0.47 0.46 0.44 0.42 0.40 0.40 0.39 0.39 0.39 0.40 0.41 0.43 0.45 0.45 0.44 0.41 0.36 0.33
0.69 0.71 0.71 0.70 0.70 0.70 0.71 0.71 0.73 0.74 0.75 0.74 0.75 0.76 0.77 0.76 0.77 0.73 0.72 0.72 0.71 0.69 0.71 0.72 0.73 0.74 0.73 0.72 0.68 0.63 0.60 0.53 0.46 0.43 0.41 0.40 0.40 0.42 0.53 0.56 0.61 0.61 0.58 0.58 0.57 0.54 0.52 0.54 0.55 0.55 0.55 0.56 0.55 0.49 0.47 0.47 0.47 0.47 0.47 0.48 0.49 0.49 0.48 0.47 0.45 0.44 0.43 0.43 0.42 0.39 0.38 0.38 0.37 0.37 0.37 0.38 0.38 0.40 0.42 0.43 0.43 0.42 0.41 0.40 0.37
0.65 0.65 0.65 0.66 0.67 0.67 0.67 0.67 0.67 0.70 0.72 0.73 0.72 0.71 0.72 0.73 0.74 0.74 0.72 0.69 0.67 0.66 0.67 0.67 0.67 0.69 0.70 0.70 0.70 0.67 0.64 0.61 0.57 0.51 0.46 0.43 0.42 0.41 0.46 0.51 0.57 0.62 0.58 0.55 0.56 0.56 0.55 0.56 0.56 0.56 0.56 0.56 0.51 0.49 0.48 0.47 0.47 0.47 0.47 0.47 0.46 0.46 0.44 0.42 0.42 0.41 0.40 0.39 0.38 0.37 0.37 0.37 0.36 0.37 0.37 0.38 0.40 0.42 0.42 0.43 0.42 0.42 0.40 0.40 0.40
0.57 0.58 0.59 0.60 0.61 0.63 0.64 0.64 0.63 0.63 0.64 0.66 0.66 0.66 0.68 0.69 0.71 0.73 0.72 0.70 0.67 0.64 0.64 0.65 0.64 0.66 0.67 0.67 0.69 0.69 0.68 0.66 0.63 0.60 0.53 0.47 0.45 0.45 0.46 0.52 0.56 0.60 0.60 0.58 0.59 0.58 0.57 0.57 0.56 0.57 0.57 0.54 0.52 0.49 0.48 0.47 0.47 0.47 0.46 0.46 0.45 0.43 0.43 0.43 0.42 0.40 0.39 0.38 0.38 0.38 0.37 0.38 0.38 0.37 0.37 0.40 0.41 0.41 0.41 0.41 0.41 0.41 0.40 0.40 0.40
0.52 0.52 0.53 0.54 0.55 0.57 0.57 0.57 0.57 0.58 0.58 0.57 0.58 0.60 0.61 0.62 0.62 0.64 0.67 0.69 0.68 0.66 0.64 0.64 0.63 0.63 0.64 0.65 0.67 0.70 0.70 0.69 0.68 0.66 0.62 0.57 0.52 0.48 0.48 0.52 0.55 0.58 0.58 0.61 0.61 0.60 0.60 0.59 0.59 0.59 0.56 0.53 0.50 0.48 0.47 0.46 0.46 0.45 0.44 0.43 0.41 0.39 0.40 0.39 0.38 0.38 0.37 0.37 0.36 0.37 0.37 0.37 0.37 0.38 0.40 0.41 0.41 0.40 0.38 0.38 0.39 0.39 0.39 0.39 0.39
0.47 0.47 0.47 0.48 0.50 0.52 0.52 0.53 0.53 0.53 0.52 0.53 0.53 0.54 0.54 0.56 0.57 0.60 0.62 0.63 0.66 0.66 0.67 0.68 0.66 0.65 0.65 0.65 0.65 0.67 0.70 0.71 0.70 0.68 0.66 0.64 0.62 0.57 0.52 0.52 0.56 0.60 0.63 0.63 0.64 0.63 0.61 0.61 0.60 0.57 0.52 0.48 0.46 0.46 0.45 0.45 0.45 0.44 0.43 0.40 0.39 0.40 0.39 0.38 0.37 0.36 0.34 0.34 0.36 0.35 0.36 0.38 0.38 0.39 0.40 0.39 0.37 0.35 0.35 0.34 0.34 0.34 0.35 0.35 0.34
0.42 0.43 0.43 0.44 0.45 0.45 0.46 0.47 0.48 0.49 0.50 0.50 0.50 0.48 0.48 0.50 0.53 0.54 0.56 0.59 0.61 0.63 0.64 0.64 0.65 0.65 0.63 0.64 0.66 0.67 0.67 0.69 0.70 0.69 0.68 0.65 0.64 0.62 0.58 0.56 0.57 0.60 0.61 0.61 0.60 0.60 0.61 0.60 0.56 0.52 0.49 0.49 0.49 0.49 0.47 0.47 0.44 0.42 0.41 0.40 0.40 0.40 0.41 0.40 0.38 0.36 0.36 0.36 0.36 0.36 0.37 0.38 0.39 0.38 0.36 0.35 0.34 0.35 0.35 0.33 0.32 0.32 0.33 0.33 0.32
0.38 0.38 0.40 0.41 0.42 0.43 0.43 0.44 0.44 0.45 0.46 0.47 0.46 0.47 0.48 0.47 0.45 0.46 0.50 0.53 0.54 0.56 0.59 0.61 0.62 0.62 0.64 0.66 0.68 0.69 0.69 0.70 0.71 0.70 0.69 0.66 0.65 0.61 0.60 0.60 0.55 0.55 0.54 0.56 0.59 0.61 0.59 0.57 0.54 0.52 0.52 0.51 0.51 0.51 0.49 0.47 0.44 0.42 0.42 0.41 0.42 0.42 0.41 0.40 0.41 0.39 0.38 0.38 0.37 0.37 0.36 0.36 0.34 0.33 0.33 0.33 0.32 0.32 0.33 0.32 0.30 0.30 0.32 0.32 0.30
0.30 0.30 0.30 0.31 0.32 0.34 0.36 0.38 0.40 0.42 0.44 0.45 0.47 0.47 0.46 0.45 0.44 0.44 0.47 0.50 0.52 0.53 0.55 0.58 0.62 0.64 0.66 0.67 0.67 0.65 0.63 0.64 0.72 0.81 0.70 0.75 0.70 0.65 0.61 0.58 0.56 0.55 0.56 0.58 0.59 0.57 0.56 0.53 0.52 0.51 0.51 0.50 0.50 0.50 0.49 0.47 0.44 0.43 0.42 0.42 0.41 0.40 0.40 0.39 0.39 0.38 0.38 0.36 0.34 0.33 0.32 0.32 0.31 0.31 0.30 0.30 0.30 0.31 0.32 0.31 0.32 0.32 0.33 0.33 0.31
0.29 0.29 0.29 0.28 0.29 0.28 0.28 0.29 0.29 0.30 0.32 0.34 0.36 0.40 0.46 0.48 0.49 0.47 0.45 0.48 0.53 0.55 0.55 0.55 0.61 0.63 0.63 0.64 0.66 0.66 0.64 0.66 0.73 0.70 0.71 0.73 0.75 0.69 0.64 0.60 0.60 0.58 0.57 0.57 0.56 0.54 0.52 0.51 0.51 0.51 0.51 0.51 0.50 0.49 0.48 0.45 0.43 0.41 0.41 0.42 0.40 0.38 0.38 0.37 0.37 0.36 0.35 0.33 0.33 0.31 0.30 0.30 0.29 0.29 0.29 0.29 0.29 0.31 0.32 0.32 0.31 0.33 0.32 0.32 0.32
0.28 0.28 0.28 0.28 0.29 0.29 0.29 0.29 0.29 0.29 0.30 0.30 0.30 0.30 0.32 0.36 0.42 0.45 0.47 0.48 0.47 0.49 0.53 0.54 0.58 0.62 0.59 0.58 0.63 0.64 0.64 0.66 0.66 0.64 0.63 0.66 0.71 0.69 0.65 0.61 0.59 0.58 0.59 0.57 0.56 0.53 0.52 0.53 0.53 0.53 0.52 0.52 0.51 0.50 0.47 0.44 0.41 0.40 0.40 0.40 0.40 0.39 0.37 0.36 0.34 0.34 0.34 0.33 0.32 0.31 0.30 0.29 0.29 0.30 0.29 0.29 0.30 0.30 0.31 0.32 0.33 0.33 0.33 0.33 0.33
0.27 0.27 0.28 0.28 0.28 0.28 0.28 0.28 0.28 0.28 0.29 0.31 0.32 0.33 0.32 0.32 0.33 0.40 0.42 0.44 0.45 0.44 0.44 0.46 0.49 0.53 0.57 0.56 0.55 0.57 0.59 0.61 0.62 0.63 0.64 0.65 0.65 0.63 0.61 0.59 0.57 0.59 0.60 0.57 0.50 0.51 0.53 0.53 0.54 0.53 0.53 0.52 0.51 0.49 0.45 0.43 0.42 0.40 0.39 0.38 0.38 0.38 0.37 0.36 0.36 0.36 0.34 0.32 0.31 0.30 0.30 0.30 0.30 0.30 0.30 0.30 0.30 0.29 0.30 0.31 0.33 0.33 0.34 0.35 0.35
0.28 0.28 0.28 0.29 0.29 0.29 0.29 0.29 0.30 0.30 0.30 0.31 0.33 0.34 0.34 0.34 0.33 0.33 0.39 0.44 0.44 0.43 0.43 0.43 0.44 0.47 0.50 0.55 0.58 0.57 0.56 0.57 0.58 0.59 0.60 0.60 0.60 0.60 0.58 0.57 0.58 0.57 0.57 0.53 0.51 0.51 0.52 0.52 0.51 0.51 0.53 0.53 0.50 0.47 0.46 0.45 0.42 0.39 0.39 0.38 0.37 0.38 0.37 0.39 0.39 0.36 0.33 0.32 0.31 0.30 0.30 0.30 0.29 0.29 0.29 0.30 0.29 0.29 0.31 0.32 0.33 0.34 0.35 0.35 0.36
0.29 0.29 0.28 0.28 0.28 0.29 0.29 0.30 0.31 0.32 0.35 0.35 0.36 0.35 0.36 0.36 0.36 0.37 0.37 0.37 0.41 0.46 0.45 0.44 0.44 0.45 0.47 0.49 0.50 0.52 0.53 0.53 0.55 0.55 0.55 0.53 0.53 0.54 0.54 0.56 0.56 0.55 0.51 0.47 0.48 0.49 0.52 0.52 0.52 0.51 0.51 0.50 0.50 0.49 0.46 0.43 0.41 0.40 0.39 0.39 0.38 0.38 0.38 0.38 0.36 0.34 0.33 0.31 0.29 0.29 0.29 0.29 0.29 0.28 0.28 0.29 0.31 0.31 0.31 0.32 0.33 0.33 0.33 0.34 0.35
0.30 0.30 0.30 0.30 0.31 0.32 0.33 0.35 0.35 0.36 0.36 0.37 0.37 0.37 0.37 0.39 0.40 0.39 0.39 0.38 0.37 0.40 0.42 0.45 0.47 0.46 0.46 0.47 0.48 0.48 0.47 0.48 0.48 0.48 0.48 0.48 0.48 0.49 0.51 0.51 0.48 0.48 0.45 0.45 0.46 0.48 0.50 0.51 0.50 0.50 0.51 0.51 0.50 0.48 0.45 0.43 0.42 0.40 0.39 0.39 0.37 0.37 0.37 0.36 0.34 0.34 0.31 0.29 0.27 0.27 0.28 0.28 0.29 0.29 0.29 0.29 0.30 0.30 0.31 0.31 0.32 0.32 0.33 0.33 0.34
0.31 0.30 0.31 0.31 0.33 0.33 0.34 0.35 0.36 0.37 0.39 0.41 0.42 0.42 0.43 0.42 0.40 0.39 0.40 0.41 0.40 0.41 0.43 0.44 0.46 0.48 0.48 0.48 0.48 0.48 0.47 0.47 0.48 0.48 0.46 0.47 0.53 0.61 0.57 0.54 0.52 0.55 0.55 0.54 0.55 0.56 0.54 0.52 0.50 0.50 0.51 0.51 0.49 0.47 0.45 0.43 0.41 0.40 0.40 0.38 0.36 0.35 0.35 0.33 0.32 0.31 0.30 0.29 0.28 0.27 0.28 0.28 0.28 0.27 0.28 0.29 0.29 0.30 0.30 0.31 0.31 0.32 0.33 0.34 0.36
0.33 0.33 0.34 0.36 0.37 0.37 0.37 0.38 0.40 0.42 0.44 0.44 0.45 0.45 0.44 0.43 0.44 0.44 0.43 0.42 0.42 0.43 0.43 0.46 0.47 0.47 0.48 0.48 0.50 0.50 0.51 0.52 0.52 0.51 0.50 0.46 0.45 0.48 0.48 0.48 0.48 0.49 0.48 0.51 0.53 0.53 0.52 0.52 0.51 0.49 0.48 0.47 0.46 0.46 0.45 0.43 0.41 0.40 0.39 0.37 0.36 0.35 0.33 0.32 0.31 0.32 0.31 0.30 0.28 0.28 0.28 0.27 0.27 0.27 0.27 0.27 0.28 0.30 0.31 0.31 0.31 0.33 0.34 0.36 0.37
0.35 0.37 0.38 0.39 0.40 0.42 0.43 0.44 0.45 0.45 0.44 0.43 0.44 0.43 0.42 0.42 0.42 0.45 0.46 0.46 0.46 0.45 0.45 0.47 0.49 0.47 0.45 0.46 0.50 0.50 0.51 0.51 0.50 0.50 0.50 0.47 0.45 0.44 0.47 0.49 0.50 0.48 0.47 0.49 0.50 0.50 0.50 0.52 0.51 0.48 0.47 0.45 0.45 0.45 0.44 0.42 0.40 0.38 0.36 0.35 0.34 0.34 0.33 0.31 0.31 0.32 0.31 0.30 0.29 0.29 0.29 0.27 0.27 0.27 0.27 0.26 0.27 0.28 0.29 0.31 0.32 0.33 0.34 0.36 0.37
0.39 0.40 0.41 0.42 0.42 0.43 0.43 0.44 0.43 0.42 0.41 0.40 0.39 0.38 0.37 0.37 0.38 0.38 0.40 0.44 0.47 0.47 0.47 0.47 0.50 0.50 0.51 0.51 0.49 0.50 0.47 0.44 0.44 0.45 0.47 0.50 0.50 0.49 0.47 0.45 0.44 0.44 0.46 0.47 0.48 0.47 0.48 0.48 0.47 0.45 0.44 0.43 0.43 0.44 0.43 0.40 0.38 0.36 0.36 0.35 0.33 0.32 0.32 0.32 0.32 0.31 0.30 0.30 0.30 0.30 0.28 0.27 0.26 0.26 0.26 0.26 0.27 0.28 0.30 0.32 0.32 0.33 0.34 0.35 0.37
0.42 0.43 0.44 0.44 0.44 0.45 0.45 0.43 0.42 0.41 0.40 0.38 0.37 0.37 0.36 0.36 0.36 0.37 0.38 0.38 0.41 0.44 0.45 0.46 0.48 0.50 0.53 0.53 0.51 0.52 0.48 0.47 0.48 0.46 0.50 0.51 0.51 0.50 0.48 0.45 0.43 0.43 0.43 0.45 0.46 0.46 0.46 0.45 0.44 0.43 0.43 0.43 0.43 0.41 0.38 0.36 0.35 0.35 0.35 0.35 0.34 0.34 0.34 0.33 0.32 0.31 0.30 0.30 0.30 0.28 0.26 0.26 0.26 0.27 0.27 0.27 0.28 0.30 0.31 0.31 0.33 0.34 0.35 0.36 0.37
0.45 0.46 0.46 0.46 0.46 0.46 0.45 0.43 0.42 0.42 0.40 0.38 0.36 0.34 0.34 0.35 0.37 0.39 0.39 0.39 0.40 0.41 0.43 0.45 0.47 0.49 0.51 0.51 0.52 0.52 0.49 0.49 0.50 0.50 0.49 0.50 0.49 0.47 0.45 0.44 0.43 0.42 0.43 0.43 0.44 0.44 0.42 0.43 0.44 0.41 0.44 0.44 0.42 0.39 0.36 0.35 0.34 0.34 0.33 0.34 0.35 0.34 0.33 0.33 0.32 0.31 0.30 0.30 0.28 0.26 0.26 0.26 0.27 0.26 0.26 0.27 0.29 0.30 0.31 0.32 0.34 0.35 0.35 0.35 0.36
0.47 0.47 0.47 0.46 0.46 0.44 0.43 0.43 0.43 0.43 0.41 0.38 0.35 0.34 0.35 0.36 0.37 0.39 0.40 0.41 0.42 0.43 0.44 0.44 0.45 0.47 0.49 0.51 0.52 0.52 0.50 0.49 0.50 0.49 0.46 0.44 0.47 0.46 0.46 0.45 0.45 0.44 0.43 0.42 0.42 0.42 0.41 0.39 0.39 0.40 0.40 0.40 0.40 0.38 0.36 0.35 0.34 0.33 0.34 0.35 0.35 0.33 0.32 0.32 0.31 0.30 0.29 0.27 0.25 0.25 0.25 0.26 0.26 0.27 0.27 0.28 0.28 0.30 0.32 0.33 0.34 0.33 0.34 0.35 0.35
0.48 0.48 0.48 0.47 0.46 0.44 0.43 0.43 0.44 0.42 0.40 0.37 0.36 0.37 0.38 0.38 0.38 0.39 0.41 0.41 0.42 0.42 0.42 0.44 0.46 0.48 0.49 0.50 0.50 0.50 0.50 0.49 0.48 0.48 0.48 0.47 0.46 0.46 0.45 0.44 0.43 0.43 0.43 0.43 0.44 0.43 0.42 0.41 0.40 0.40 0.40 0.40 0.39 0.38 0.36 0.35 0.36 0.36 0.37 0.36 0.34 0.33 0.32 0.30 0.29 0.28 0.26 0.25 0.24 0.24 0.25 0.25 0.25 0.26 0.27 0.28 0.29 0.31 0.32 0.32 0.33 0.33 0.34 0.34 0.35
0.48 0.48 0.49 0.48 0.47 0.46 0.45 0.44 0.43 0.42 0.40 0.38 0.37 0.38 0.40 0.39 0.39 0.40 0.41 0.41 0.42 0.41 0.40 0.41 0.43 0.44 0.45 0.47 0.49 0.49 0.48 0.48 0.47 0.46 0.45 0.44 0.44 0.44 0.43 0.43 0.42 0.42 0.42 0.42 0.42 0.42 0.42 0.41 0.40 0.40 0.41 0.41 0.40 0.40 0.38 0.38 0.39 0.39 0.38 0.36 0.35 0.34 0.32 0.30 0.28 0.26 0.24 0.23 0.23 0.23 0.23 0.24 0.24 0.25 0.27 0.28 0.29 0.29 0.31 0.32 0.32 0.32 0.33 0.34 0.34
0.48 0.48 0.48 0.47 0.46 0.44 0.44 0.44 0.43 0.42 0.41 0.38 0.37 0.38 0.41 0.40 0.40 0.40 0.42 0.42 0.42 0.42 0.41 0.41 0.42 0.43 0.44 0.45 0.46 0.46 0.47 0.47 0.46 0.45 0.42 0.41 0.42 0.42 0.42 0.42 0.41 0.41 0.41 0.41 0.42 0.41 0.41 0.40 0.40 0.39 0.38 0.39 0.39 0.38 0.39 0.41 0.42 0.41 0.39 0.37 0.35 0.33 0.31 0.29 0.27 0.26 0.25 0.23 0.22 0.22 0.23 0.24 0.23 0.25 0.27 0.28 0.29 0.29 0.30 0.31 0.32 0.33 0.33 0.33 0.33
0.48 0.48 0.47 0.46 0.45 0.44 0.44 0.44 0.44 0.43 0.40 0.36 0.36 0.37 0.40 0.41 0.41 0.41 0.42 0.43 0.44 0.43 0.43 0.42 0.42 0.42 0.44 0.46 0.46 0.46 0.45 0.46 0.46 0.45 0.43 0.42 0.42 0.42 0.42 0.42 0.42 0.41 0.41 0.41 0.42 0.41 0.41 0.40 0.38 0.38 0.38 0.38 0.40 0.41 0.42 0.43 0.41 0.40 0.39 0.37 0.35 0.33 0.30 0.28 0.27 0.26 0.25 0.25 0.24 0.24 0.24 0.25 0.24 0.25 0.27 0.28 0.29 0.30 0.30 0.31 0.33 0.33 0.33 0.33 0.33
0.48 0.48 0.47 0.47 0.46 0.45 0.45 0.46 0.45 0.43 0.41 0.37 0.36 0.36 0.38 0.41 0.42 0.42 0.43 0.43 0.43 0.43 0.44 0.44 0.43 0.42 0.42 0.44 0.46 0.46 0.46 0.46 0.46 0.46 0.45 0.44 0.43 0.43 0.43 0.42 0.41 0.41 0.41 0.42 0.42 0.42 0.43 0.42 0.42 0.42 0.42 0.43 0.44 0.44 0.44 0.43 0.42 0.40 0.38 0.36 0.33 0.29 0.27 0.27 0.27 0.27 0.27 0.27 0.27 0.27 0.26 0.26 0.25 0.25 0.26 0.28 0.29 0.29 0.30 0.31 0.32 0.33 0.33 0.33 0.34
0.48 0.48 0.48 0.48 0.47 0.46 0.45 0.46 0.43 0.42 0.42 0.40 0.38 0.36 0.38 0.40 0.43 0.43 0.43 0.43 0.43 0.43 0.43 0.44 0.45 0.45 0.44 0.43 0.43 0.44 0.45 0.45 0.46 0.45 0.45 0.44 0.44 0.43 0.43 0.43 0.43 0.44 0.45 0.47 0.47 0.47 0.47 0.47 0.46 0.46 0.45 0.45 0.45 0.44 0.43 0.42 0.40 0.37 0.33 0.30 0.27 0.27 0.27 0.28 0.28 0.29 0.29 0.29 0.29 0.28 0.28 0.28 0.27 0.27 0.28 0.28 0.28 0.29 0.29 0.30 0.32 0.33 0.33 0.34 0.34
0.47 0.46 0.46 0.47 0.47 0.46 0.45 0.45 0.44 0.41 0.40 0.41 0.40 0.38 0.37 0.38 0.41 0.43 0.44 0.44 0.43 0.44 0.44 0.44 0.44 0.45 0.45 0.45 0.45 0.45 0.44 0.44 0.43 0.44 0.44 0.45 0.46 0.46 0.47 0.48 0.48 0.48 0.48 0.47 0.48 0.47 0.47 0.47 0.46 0.45 0.43 0.42 0.42 0.41 0.40 0.38 0.35 0.32 0.29 0.26 0.26 0.26 0.27 0.28 0.29 0.30 0.30 0.30 0.30 0.29 0.29 0.30 0.30 0.29 0.29 0.29 0.29 0.30 0.31 0.31 0.32 0.32 0.33 0.34 0.33
0.45 0.45 0.46 0.46 0.45 0.44 0.44 0.43 0.42 0.41 0.41 0.41 0.41 0.40 0.38 0.37 0.39 0.41 0.43 0.44 0.43 0.43 0.44 0.45 0.45 0.45 0.44 0.44 0.45 0.45 0.46 0.45 0.46 0.46 0.46 0.46 0.47 0.47 0.47 0.47 0.47 0.47 0.46 0.46 0.46 0.46 0.45 0.45 0.45 0.43 0.41 0.41 0.39 0.37 0.35 0.32 0.30 0.28 0.26 0.24 0.24 0.25 0.26 0.29 0.31 0.32 0.32 0.33 0.32 0.31 0.31 0.32 0.32 0.31 0.31 0.31 0.30 0.30 0.31 0.31 0.32 0.32 0.32 0.32 0.32
0.42 0.43 0.43 0.42 0.42 0.41 0.41 0.41 0.40 0.40 0.40 0.40 0.40 0.39 0.38 0.37 0.36 0.37 0.39 0.39 0.39 0.40 0.42 0.43 0.44 0.44 0.44 0.44 0.44 0.44 0.45 0.45 0.45 0.45 0.45 0.44 0.44 0.43 0.43 0.43 0.44 0.43 0.43 0.43 0.43 0.42 0.42 0.41 0.41 0.40 0.40 0.37 0.34 0.31 0.30 0.28 0.26 0.24 0.24 0.25 0.27 0.29 0.30 0.31 0.31 0.32 0.33 0.34 0.34 0.34 0.33 0.32 0.32 0.32 0.32 0.31 0.31 0.31 0.31 0.31 0.31 0.32 0.32 0.32 0.31
Wind_Speed
15 15 14 13 13 13 12 12 13 13 13 13 13 12 12 12 12 11 11 10 9 9 9 9 9 9 8 8 7 7 6 6 6 5 5 4 4 4 4 4 4 4 3 3 3 4 4 3 3 3 3 3 3 3 3 4 4 4 3 3 3 4 4 4 4 4 4 5 5 5 5 5 6 6 6 6 6 6 6 6 6 7 7 8 8
14 15 15 14 14 14 13 12 13 13 13 13 13 12 12 12 13 12 12 11 11 10 10 10 10 9 9 9 8 8 7 7 7 7 6 6 6 6 6 6 5 5 5 5 5 5 5 5 5 5 5 4 4 4 4 4 4 3 3 3 3 4 5 5 5 5 6 6 6 6 6 7 8 8 8 7 7 8 8 8 8 9 9 9 9
15 15 15 15 14 14 13 13 13 14 13 13 14 14 14 14 14 14 13 13 12 12 11 10 9 9 9 9 8 8 8 8 8 8 8 8 7 7 7 8 7 7 7 7 6 6 6 6 6 6 6 7 6 6 5 4 4 4 4 5 4 5 6 6 6 6 6 7 7 8 7 8 9 9 9 9 9 9 10 10 10 11 11 11 11
15 15 15 14 14 14 14 14 14 14 14 14 14 15 15 15 15 14 14 13 13 12 11 10 10 10 9 9 8 8 8 8 8 9 9 9 9 9 8 9 9 9 8 8 8 8 8 8 8 8 8 8 8 8 7 6 6 5 5 7 7 6 6 6 7 7 7 7 8 9 9 9 10 10 10 10 10 10 11 12 12 12 12 13 13
13 14 13 13 13 14 14 15 15 15 15 15 15 15 15 14 14 14 14 14 13 12 12 11 11 11 10 9 9 9 9 9 9 10 10 10 10 10 9 9 10 10 9 9 10 10 10 10 10 10 10 9 9 9 8 8 7 7 7 8 8 7 7 7 7 7 7 8 9 10 10 10 11 11 11 11 12 12 13 13 12 12 13 14 15
11 12 13 12 12 13 13 14 14 14 14 14 15 15 14 13 14 14 14 14 14 13 13 13 12 12 11 10 11 11 11 11 10 11 11 11 10 10 10 10 11 11 11 11 11 11 11 11 11 10 10 10 9 10 9 9 9 8 7 8 8 8 8 8 8 8 9 9 10 11 12 12 12 12 13 13 14 14 14 14 14 14 15 17 17
9 10 12 12 12 12 12 13 13 13 13 14 14 15 14 14 14 14 14 15 15 14 14 13 13 13 12 12 12 12 12 12 12 12 12 12 11 11 11 11 12 12 12 12 12 12 12 12 11 11 10 10 9 9 9 9 9 8 8 8 8 9 9 9 9 10 11 11 12 13 14 14 14 14 15 15 16 16 16 16 17 18 18 19 20
8 9 10 11 11 11 12 12 12 13 13 13 13 13 14 14 13 13 14 14 14 14 14 14 13 13 13 13 13 13 13 13 13 13 13 13 12 12 12 12 13 13 13 13 13 13 13 13 12 11 10 10 9 9 9 8 9 9 9 9 9 10 10 11 11 12 13 14 14 15 16 16 17 17 17 17 17 18 18 19 20 21 21 22 23
8 8 9 10 11 11 12 12 12 12 12 11 11 12 12 13 13 13 13 14 14 14 14 14 14 14 14 14 14 14 13 14 14 14 14 14 14 14 14 14 14 14 15 14 14 14 13 12 12 11 10 10 10 10 10 10 10 10 10 11 12 12 13 14 14 15 15 16 16 17 17 18 19 19 19 19 19 20 20 21 22 23 24 25 25
9 9 9 10 10 11 11 12 12 13 13 12 12 12 12 12 12 12 13 13 13 13 14 14 14 14 14 14 14 14 14 14 14 14 14 15 15 15 15 15 15 15 15 15 14 14 13 12 12 12 11 11 11 11 11 11 12 12 13 14 14 15 16 16 17 17 17 18 18 19 19 19 20 20 20 21 21 22 23 23 24 25 26 27 28
8 8 9 9 10 10 11 12 12 12 12 12 12 12 12 12 12 12 13 13 14 14 13 13 14 14 14 15 15 15 15 14 14 14 15 15 16 16 16 16 15 15 14 14 13 13 13 13 13 13 13 13 13 13 13 13 13 14 15 16 16 17 17 18 18 19 19 20 20 20 21 21 21 21 21 22 23 24 25 25 26 27 27 28 29
8 8 8 9 9 10 10 11 11 11 12 12 12 13 13 13 13 14 13 14 14 14 14 14 15 15 15 16 16 16 16 16 16 16 16 17 17 17 16 15 15 15 14 14 14 13 13 13 13 14 14 14 14 14 14 15 15 16 16 17 17 18 18 19 20 20 20 21 21 21 22 22 22 22 23 23 24 25 26 26 27 27 28 29 30
8 9 9 9 9 9 10 11 11 12 12 12 12 13 14 14 15 15 14 15 15 16 16 16 16 16 17 17 17 17 18 18 18 17 17 17 17 16 16 15 14 14 14 14 15 14 14 14 14 14 15 15 16 16 17 17 17 17 18 18 19 19 19 20 21 21 22 22 22 23 23 23 24 24 24 25 25 26 27 28 29 29 30 31 32
9 9 9 9 9 10 10 10 11 12 12 12 13 14 14 15 16 16 16 16 16 17 17 17 17 17 17 18 18 18 19 19 18 18 17 17 17 16 16 16 15 15 15 16 16 16 16 15 15 16 16 17 18 18 18 19 19 19 20 20 20 21 21 22 22 23 23 24 24 24 25 25 25 25 26 26 27 28 29 30 31 32 33 33 34
9 9 9 10 10 10 10 10 11 12 12 13 13 14 15 15 16 16 16 17 17 17 17 18 18 19 19 19 19 19 19 19 18 17 17 17 17 17 17 17 16 16 16 17 17 18 18 18 18 18 19 19 19 20 20 21 22 22 22 22 22 22 22 23 23 23 23 24 24 25 25 25 25 26 27 28 29 30 31 32 33 33 34 34 34
7 7 8 9 11 12 13 13 13 14 14 14 15 15 16 16 16 16 17 18 18 18 18 18 19 19 19 19 19 19 18 18 17 17 17 17 18 18 18 18 18 18 18 18 19 19 19 20 20 21 21 21 21 22 22 23 23 24 24 24 24 24 24 24 23 23 23 24 24 24 25 25 26 27 28 29 30 31 32 33 34 34 34 34 34
8 8 8 9 10 11 13 14 15 15 15 15 16 16 17 18 18 18 18 19 19 19 19 19 19 19 19 19 19 19 19 18 18 18 18 19 20 20 20 20 20 20 20 20 21 21 21 21 21 22 22 23 23 23 23 24 25 25 25 25 25 24 24 25 24 24 24 24 25 25 26 27 28 29 30 31 32 32 33 33 33 33 33 33 33
10 10 10 10 10 11 12 13 14 15 16 17 17 17 17 18 18 19 19 20 20 20 20 20 19 19 19 19 19 19 19 19 20 20 20 21 21 21 21 21 21 21 22 22 22 22 22 22 22 23 23 23 23 24 24 25 26 26 26 26 25 25 25 25 25 25 25 25 26 27 27 28 29 30 31 31 32 32 32 33 33 32 32 33 33
12 12 12 13 13 13 14 14 15 15 16 18 18 19 19 19 20 20 20 20 21 21 21 21 21 20 20 20 20 20 20 20 21 21 22 22 22 23 23 23 23 23 23 23 23 24 23 23 23 24 24 24 24 24 24 25 26 26 26 26 26 25 25 25 25 25 25 26 27 27 28 29 30 31 31 32 32 32 32 32 32 32 32 33 33
15 15 16 16 16 17 17 18 18 18 19 19 20 20 21 21 22 22 22 22 22 23 23 23 23 23 22 22 21 22 22 22 22 23 23 24 25 25 25 26 26 26 26 26 25 25 25 25 24 24 24 24 24 24 25 25 25 25 25 26 26 26 26 26 26 26 26 27 28 28 29 29 30 31 32 32 33 33 33 33 33 33 33 33 33
19 20 20 20 20 21 21 22 22 22 22 22 22 23 23 23 23 24 24 24 24 25 25 26 26 26 25 25 25 25 24 24 24 24 25 26 27 28 28 28 28 29 29 28 28 27 26 26 26 25 25 25 25 25 25 25 26 26 26 26 27 27 27 27 27 28 28 28 29 29 30 30 30 31 31 32 32 33 33 33 33 33 33 33 34
23 24 24 25 25 25 25 25 25 25 25 25 25 25 25 25 25 26 26 26 25 26 26 28 29 29 30 29 29 28 27 26 26 26 27 27 28 28 29 29 30 31 31 30 29 28 28 27 27 27 26 26 26 26 26 26 27 27 27 27 28 28 28 29 29 29 29 29 29 30 30 31 31 31 32 32 33 33 33 33 33 34 34 34 34
25 26 26 27 27 27 28 28 28 28 28 27 28 28 28 28 28 28 28 29 30 30 29 29 31 32 32 32 32 31 30 29 28 28 29 29 28 28 29 29 30 31 31 31 30 29 29 28 28 27 26 26 27 27 27 27 28 28 28 28 29 29 29 29 29 29 29 30 30 31 31 31 32 32 33 33 34 34 34 34 34 34 34 35 35
26 26 27 27 28 28 29 29 29 30 30 30 30 30 31 31 31 31 32 32 33 34 33 32 32 32 33 34 34 33 33 32 31 31 30 30 29 29 29 30 30 30 31 31 30 29 29 29 28 28 27 27 28 28 28 28 29 29 29 29 29 29 29 29 30 30 30 31 31 31 31 32 32 33 34 35 35 35 35 36 36 36 36 36 35
28 28 29 29 30 30 30 31 31 32 32 33 33 33 33 33 34 34 35 34 34 35 34 34 33 33 34 35 35 35 35 35 33 32 32 31 31 30 30 30 30 30 30 30 30 29 29 28 28 28 28 28 28 28 28 28 28 28 29 29 29 29 29 29 30 30 30 31 31 31 31 32 33 34 35 36 36 37 37 37 37 37 37 36 36
30 30 31 31 32 32 32 33 33 33 34 34 34 34 35 35 35 36 36 36 36 36 36 35 35 34 35 35 36 37 37 36 35 34 32 32 31 30 30 30 30 30 29 29 29 28 28 28 29 29 29 28 28 28 28 28 28 28 29 29 29 29 29 29 29 30 30 30 30 31 31 32 33 35 36 36 37 37 37 37 37 37 37 36 36
31 32 33 33 33 34 34 35 35 35 36 36 36 36 36 37 37 37 37 38 38 38 39 39 39 38 37 36 37 37 37 37 37 35 34 32 32 31 30 30 30 30 29 29 29 28 28 28 28 29 29 29 29 29 29 28 28 28 28 28 28 28 28 28 28 28 29 29 29 30 31 33 34 35 36 36 36 37 37 37 37 36 36 36 35
32 32 33 33 34 34 35 36 36 37 37 38 38 38 39 39 40 41 41 41 41 41 41 41 41 40 39 37 37 36 35 35 35 34 34 34 33 32 32 31 31 30 29 29 28 28 28 28 28 28 28 28 28 29 29 28 28 28 28 27 27 27 27 27 27 28 28 29 29 31 33 34 35 35 36 36 36 36 36 36 35 35 34 34 33
31 32 33 33 34 35 35 36 37 37 38 39 39 40 40 41 42 43 43 43 43 43 43 42 41 40 40 39 38 37 36 35 35 34 34 34 34 33 33 32 31 30 30 29 29 28 28 28 28 28 28 28 28 28 28 28 28 28 28 28 27 27 27 28 28 29 29 29 31 32 33 34 34 34 35 35 35 35 34 34 33 33 32 31 31
32 32 33 33 34 35 36 36 37 37 38 39 39 40 41 41 41 42 43 43 43 43 43 43 42 41 41 41 41 40 39 39 38 38 37 36 35 34 33 32 31 30 30 29 30 30 30 29 29 29 29 28 28 28 28 28 28 28 28 28 28 28 28 29 29 29 30 31 32 33 33 32 32 32 32 32 32 32 32 31 30 29 29 29 29
32 33 33 33 34 35 36 36 37 37 38 38 39 39 40 41 41 42 42 42 43 43 43 43 43 43 43 43 43 43 42 42 41 41 40 39 38 36 35 35 34 33 33 32 32 32 31 30 30 29 29 29 29 29 29 29 29 29 29 29 29 28 28 29 29 29 30 31 31 31 30 30 30 30 30 29 29 29 29 28 27 26 26 26 26
32 32 33 33 34 35 36 36 37 38 38 39 39 40 40 41 41 42 42 41 41 42 42 42 43 44 45 44 44 44 44 43 43 42 41 40 40 40 39 38 37 37 36 35 34 34 33 32 31 30 29 29 30 30 30 30 30 30 29 29 29 28 28 28 28 29 29 29 28 28 27 27 27 27 27 26 26 26 25 24 23 23 23 23 22
30 31 32 33 34 35 36 37 37 38 38 39 39 40 40 40 41 41 41 41 41 41 41 41 41 42 42 43 43 42 42 42 42 42 41 41 41 41 41 40 39 39 38 36 34 34 34 35 35 34 33 32 32 31 30 30 30 29 29 28 28 27 27 27 27 27 27 26 25 25 25 25 24 24 24 24 23 23 22 21 21 20 20 20 20
28 29 30 31 32 33 34 35 35 36 36 37 38 38 39 39 39 40 40 40 40 39 39 39 39 38 38 39 39 39 39 39 39 40 40 41 42 42 41 40 40 40 40 38 37 36 36 36 35 34 34 33 33 32 30 30 29 29 28 27 27 26 26 26 26 26 25 24 23 23 23 23 22 23 22 22 21 20 19 19 18 18 18 18 19
25 26 27 28 29 30 30 31 32 32 33 34 34 35 36 36 36 37 37 37 37 37 37 37 37 36 36 35 35 35 35 35 35 36 36 37 37 38 38 38 38 38 38 37 36 36 35 35 33 33 33 33 32 31 30 30 29 28 27 26 26 25 25 26 25 25 24 23 22 21 21 21 21 20 20 19 18 17 17 16 16 16 16 17 17
22 23 24 25 26 26 27 27 28 28 29 29 30 30 31 31 32 33 33 34 34 35 35 35 35 34 34 34 33 32 32 31 31 31 32 31 30 29 29 29 30 30 30 30 31 31 32 32 32 32 32 32 31 29 29 28 28 27 26 26 26 25 25 25 25 24 23 22 21 20 19 19 18 18 17 16 16 15 14 14 14 14 14 14 15
20 21 22 22 22 22 22 22 22 23 23 24 24 25 26 27 28 29 29 30 31 31 31 31 32 32 32 32 32 31 30 29 29 28 28 28 27 26 25 25 25 25 26 27 28 28 29 30 31 31 31 31 30 29 28 28 27 27 26 26 26 25 25 24 23 22 21 20 19 19 18 17 16 16 15 14 14 13 13 12 12 12 12 13 15
18 19 19 19 19 18 18 18 18 18 19 20 21 22 23 24 24 25 26 26 26 27 27 28 28 28 29 29 29 30 29 29 28 27 27 27 27 28 28 28 28 28 29 29 28 28 29 29 30 30 30 29 29 29 29 28 27 27 26 26 26 25 24 23 22 21 20 19 18 17 16 15 15 14 13 12 12 11 11 10 10 10 12 13 14
16 17 16 16 16 15 15 15 15 15 16 17 18 18 19 19 19 20 21 22 22 23 24 24 25 25 25 25 25 25 26 27 27 26 24 24 25 26 27 27 28 28 29 29 29 28 28 29 29 29 29 28 28 28 28 28 27 27 27 26 25 23 22 21 20 20 19 18 17 16 15 14 13 12 11 10 10 9 9 8 9 10 11 12 13
14 14 13 13 13 13 13 13 13 13 14 15 15 16 16 16 16 16 16 17 17 18 19 20 21 22 23 23 23 23 22 22 23 23 22 21 22 23 23 24 24 25 25 26 26 26 26 27 27 27 27 27 27 27 26 26 26 26 25 24 22 21 20 19 19 18 17 16 16 15 13 12 11 10 10 9 9 8 7 7 8 9 10 12 13
11 11 11 11 11 11 11 11 12 13 14 14 14 15 15 15 15 14 14 14 14 14 15 15 17 18 20 21 22 23 23 22 22 22 22 22 22 22 23 22 22 22 22 22 23 23 23 24 24 24 25 24 24 24 24 23 23 23 22 21 20 19 19 18 18 17 16 15 14 13 12 11 10 9 8 8 7 7 6 6 7 9 10 11 11
10 10 10 10 10 9 10 11 12 13 13 13 14 15 15 14 13 13 12 12 12 12 13 14 15 16 17 18 19 21 22 23 22 22 21 21 22 22 23 22 21 21 21 20 20 20 21 21 21 21 22 22 22 22 21 21 21 20 19 19 18 18 18 17 17 16 15 14 12 11 10 9 9 8 8 7 6 5 6 6 7 8 9 10 11
9 9 9 9 9 9 10 11 12 12 13 13 14 15 15 14 13 11 10 10 10 10 11 12 14 15 16 17 17 18 19 20 21 21 21 21 21 22 21 20 20 19 19 19 18 19 19 19 19 20 20 20 20 20 20 19 19 18 17 17 17 17 16 15 15 14 13 12 11 10 9 9 8 8 7 6 5 5 6 7 7 8 9 9 10
8 8 8 8 9 10 10 11 11 12 12 14 15 15 14 13 12 10 9 8 9 9 9 9 10 12 14 15 17 17 18 18 19 19 19 19 19 19 19 18 18 18 17 17 17 17 17 17 18 18 18 18 17 17 17 16 15 15 16 16 15 14 14 13 12 11 11 10 9 9 9 8 8 7 7 6 6 6 6 7 7 8 8 9 10
7 7 7 8 9 9 10 10 11 12 13 14 15 15 13 12 11 10 9 8 9 9 8 7 7 7 7 9 12 14 15 16 17 16 16 16 16 16 16 16 16 16 15 15 15 15 15 16 16 17 16 16 15 14 13 13 13 13 13 13 13 12 12 11 11 10 9 8 8 8 8 8 8 7 7 7 6 6 6 6 7 7 8 9 10
6 6 7 8 8 9 9 10 10 11 12 13 14 14 12 11 10 10 9 9 9 9 9 8 8 6 4 2 3 6 9 11 12 13 13 14 14 14 14 14 14 14 13 13 13 13 13 13 14 13 13 12 12 11 11 11 12 11 11 11 11 11 10 10 9 9 8 7 7 8 8 8 8 7 7 7 7 7 7 6 7 8 9 9 10
6 7 7 7 7 8 9 10 10 10 11 12 12 12 11 10 10 10 10 9 9 10 10 10 9 8 7 6 4 4 5 6 8 9 10 11 11 11 11 11 11 11 10 10 9 9 9 9 9 9 9 9 10 10 10 10 10 9 9 9 9 9 9 9 8 8 7 7 7 7 7 8 8 7 7 7 7 7 7 7 7 8 9 9 9
7 7 6 7 7 8 9 10 9 9 9 10 11 11 11 10 9 9 10 10 10 10 10 10 10 9 9 8 7 7 6 7 7 7 8 8 8 8 8 8 8 8 8 7 7 6 6 6 7 7 8 8 8 9 9 9 8 8 9 9 9 8 8 8 7 7 7 7 8 8 8 8 7 7 8 8 7 7 7 7 7 8 8 9 9
6 6 6 7 8 8 9 10 10 9 8 9 10 10 10 10 9 9 9 9 10 10 10 10 10 10 10 9 9 8 7 7 7 6 6 6 6 6 6 6 7 7 7 7 6 6 6 6 6 7 7 7 7 7 8 8 8 8 8 8 8 7 7 6 7 7 7 7 8 8 8 8 8 8 8 8 8 8 8 8 8 8 8 8 8
5 5 6 7 7 8 9 10 10 10 9 9 9 9 10 10 9 8 8 8 9 9 9 10 10 10 9 9 8 8 8 7 7 6 6 6 6 6 6 6 6 6 6 6 6 6 6 6 7 7 6 6 6 7 7 7 7 7 7 7 6 6 5 5 6 6 6 7 8 8 8 8 8 8 8 9 9 8 8 8 8 8 8 8 8
5 5 6 6 7 7 8 9 10 11 11 10 10 9 9 9 9 9 8 8 8 8 8 8 8 8 8 7 7 6 6 7 7 7 6 6 6 6 6 5 5 5 5 5 5 5 6 6 6 6 6 6 6 7 7 7 7 6 6 5 5 5 4 5 5 6 7 7 8 9 9 9 9 9 9 9 9 9 9 9 9 9 8 8 8
Wind_Direction
215 218 220 220 221 221 222 221 219 220 221 222 224 226 229 230 231 233 232 230 227 223 221 219 217 217 216 214 214 217 221 223 225 227 227 229 235 240 246 250 249 252 259 265 267 266 271 279 277 272 267 264 276 284 281 279 276 275 281 272 255 257 262 265 260 260 268 271 268 269 270 269 271 277 290 296 291 285 285 288 289 290 293 293 293
220 223 223 222 222 223 223 222 220 220 221 223 227 229 231 232 233 233 231 227 225 224 223 222 222 221 219 218 220 224 226 228 232 236 238 241 245 250 253 254 255 259 264 265 263 263 264 262 262 264 261 261 271 280 280 277 275 279 284 274 262 267 271 270 268 269 270 270 270 271 271 270 269 272 282 291 288 285 286 285 282 285 288 287 287
226 227 226 223 222 223 224 224 225 223 224 229 233 232 233 235 234 232 228 226 225 225 224 222 220 220 221 223 226 229 232 234 239 242 246 248 249 253 257 257 258 261 262 261 260 261 261 259 258 259 259 264 270 273 274 274 272 272 277 275 270 272 275 274 274 273 271 270 270 271 273 273 272 274 280 287 287 285 285 282 278 279 281 280 282
227 227 226 225 225 226 226 227 229 230 231 235 236 235 235 234 231 228 227 225 224 224 223 222 222 225 226 228 232 236 238 239 243 246 248 248 248 252 256 257 258 258 257 257 258 260 260 260 262 262 260 263 266 267 269 272 272 271 273 276 275 276 276 275 274 271 269 272 272 273 278 279 276 277 280 285 287 286 285 284 279 277 277 277 281
224 223 223 224 226 229 230 230 231 233 235 236 234 234 232 228 227 227 226 223 222 224 226 228 229 229 229 231 235 240 242 244 246 248 249 250 251 254 255 255 256 256 256 257 259 263 263 262 264 265 263 262 260 260 264 268 270 272 272 272 272 274 275 275 276 274 272 276 275 276 281 284 282 281 282 284 286 288 289 288 283 279 279 280 283
221 221 221 223 224 226 228 229 229 230 230 228 227 227 226 224 226 227 224 222 224 228 232 233 232 230 231 235 239 243 246 248 249 249 250 254 256 258 258 257 255 255 258 261 263 266 266 264 264 263 262 260 257 257 262 264 266 267 268 267 267 271 275 277 279 278 277 280 279 278 282 284 282 283 283 284 286 288 288 286 283 282 284 285 287
218 219 218 221 224 224 225 227 227 226 223 220 221 224 225 225 225 225 224 224 227 232 235 235 233 232 235 239 242 247 250 250 251 251 252 254 258 261 262 260 258 258 262 264 265 267 266 263 262 261 261 260 257 257 260 261 260 261 262 262 265 270 274 277 277 277 280 283 283 281 281 282 281 282 283 284 286 287 286 285 285 285 286 287 288
217 220 220 221 223 226 228 228 226 223 219 216 219 223 225 225 225 225 225 227 230 232 233 234 235 237 240 243 246 250 251 251 253 255 254 255 258 262 263 263 262 262 265 266 267 267 265 262 259 258 258 259 258 257 257 255 256 261 264 265 267 271 273 274 276 279 282 284 285 284 283 283 283 283 284 284 285 285 285 285 286 287 287 287 288
223 225 227 228 228 229 230 228 225 222 220 220 222 225 226 226 226 226 228 231 233 233 234 235 237 238 242 246 249 252 254 255 255 255 256 258 261 262 264 266 267 267 267 267 266 266 263 260 258 256 255 256 257 257 256 256 258 264 268 270 272 274 274 274 277 279 281 282 284 285 285 285 285 284 284 284 284 284 285 285 286 287 287 288 288
230 230 233 237 236 232 230 230 229 227 227 228 227 224 224 224 225 227 230 231 233 235 238 239 238 239 243 247 250 253 258 259 258 257 258 261 263 264 267 270 270 269 268 266 264 261 259 259 258 256 255 256 256 257 257 259 263 267 271 274 275 276 275 276 277 278 279 281 282 283 284 286 286 284 284 284 284 284 285 286 287 287 288 288 289
232 235 239 241 239 235 233 232 231 228 227 227 226 222 222 225 229 232 233 234 235 238 241 241 242 244 246 249 251 255 259 260 259 260 262 263 264 267 270 271 269 268 266 263 262 260 258 257 257 258 259 258 257 258 260 263 267 271 275 277 277 277 276 275 276 277 278 279 280 281 283 284 285 284 284 285 285 286 286 287 288 289 289 290 289
232 236 240 240 238 236 233 230 229 228 227 228 229 228 230 234 236 237 238 240 241 242 244 246 247 249 251 252 254 257 260 261 262 263 264 264 266 268 269 269 269 268 264 261 262 263 261 259 259 261 261 260 260 262 265 268 271 274 277 279 279 279 277 276 276 276 277 278 279 280 281 282 283 284 284 285 286 287 288 289 290 290 290 290 290
231 235 239 238 236 234 232 230 232 234 234 233 234 236 238 239 239 241 243 244 245 247 249 252 254 255 255 255 257 260 262 264 264 265 264 265 266 267 266 267 267 267 263 261 262 263 263 263 264 264 263 261 263 266 269 271 273 276 279 280 280 279 279 278 277 277 277 278 278 280 280 281 281 283 284 285 286 288 289 290 291 291 291 292 291
234 236 236 235 236 237 236 236 236 236 237 238 240 243 244 243 244 247 248 248 249 252 254 256 258 258 257 257 258 261 263 265 265 265 264 264 265 266 266 266 267 267 265 263 263 263 264 265 265 264 265 266 267 269 272 274 276 278 280 280 280 280 280 280 280 279 279 279 279 280 280 280 280 281 284 286 287 289 290 291 292 292 292 292 293
237 237 238 239 240 239 237 237 237 238 241 244 246 248 248 248 250 252 252 251 253 256 258 259 260 260 259 259 260 261 262 263 262 262 262 262 263 265 267 267 267 268 267 266 267 266 265 265 265 266 268 269 271 273 275 276 277 279 280 280 280 280 280 281 281 281 281 281 281 280 280 280 280 282 285 287 289 291 292 292 293 293 293 293 294
240 240 243 247 248 244 241 241 241 242 245 249 250 251 251 252 254 255 256 255 256 258 260 260 261 260 260 260 260 260 260 260 259 260 260 261 263 265 266 267 266 267 268 269 270 270 268 266 265 267 268 270 272 274 275 277 278 278 278 279 279 280 281 281 281 281 281 281 282 281 281 281 282 284 286 289 290 292 294 294 294 294 294 295 295
258 257 258 260 257 253 249 248 248 248 249 251 252 253 253 253 256 258 258 258 258 259 259 259 260 259 259 259 258 258 258 259 260 261 262 263 264 264 265 267 267 269 270 270 271 272 271 268 266 267 269 270 273 275 275 276 277 277 276 277 278 279 280 281 281 281 281 281 282 282 282 283 284 286 288 290 291 293 295 296 296 295 295 295 295
263 264 266 268 267 265 261 258 257 257 257 257 257 257 256 256 258 260 260 261 261 261 260 259 259 259 259 259 258 258 259 261 262 263 264 264 263 263 266 268 269 270 271 272 273 273 272 270 268 268 270 272 274 276 277 277 277 277 276 275 276 278 279 279 280 281 282 282 283 284 284 285 287 288 290 291 292 293 295 295 295 295 295 295 295
264 266 270 272 272 270 268 266 267 266 265 265 263 261 261 261 261 262 263 265 264 263 263 262 261 260 259 259 259 261 263 264 264 264 264 264 263 264 267 268 268 269 271 272 274 274 272 271 269 269 271 273 276 278 279 278 278 278 277 274 275 276 278 279 279 280 281 283 284 285 286 287 288 289 290 291 292 293 294 295 295 295 295 295 295
265 267 269 270 271 271 271 271 273 272 271 270 268 264 264 264 263 263 265 267 266 266 265 264 263 262 261 261 263 265 266 266 265 264 263 263 264 266 268 268 266 266 269 271 272 272 271 270 270 270 271 273 275 277 278 278 278 279 278 276 275 276 278 278 279 279 281 283 285 286 286 288 289 289 291 292 292 292 293 293 293 293 293 294 294
266 267 267 269 271 272 272 272 273 273 273 272 270 268 269 269 267 265 265 266 266 266 265 264 263 263 262 262 265 266 267 266 265 263 263 264 265 267 268 268 266 265 268 269 269 269 269 268 269 269 270 272 274 276 277 277 277 278 278 277 277 277 278 279 279 280 282 283 284 285 286 288 289 290 291 292 292 292 292 292 292 292 292 293 293
269 268 268 268 269 269 270 270 271 271 272 271 271 271 271 271 270 268 266 265 265 267 268 267 266 264 262 262 263 264 265 264 264 263 263 264 266 267 268 269 267 265 266 267 267 267 266 266 266 267 268 270 273 274 275 276 276 277 277 277 278 278 279 279 280 281 282 283 284 285 286 288 289 290 290 291 291 292 292 292 292 292 292 292 292
270 269 268 268 268 268 268 269 269 269 270 270 270 269 269 270 269 268 268 267 266 268 270 270 269 266 263 262 262 262 262 262 263 263 263 264 266 267 268 269 268 266 265 265 265 265 265 265 265 265 266 268 270 272 273 274 275 276 276 277 278 279 279 280 281 282 283 284 284 286 287 288 289 290 290 290 291 291 292 292 292 292 292 292 292
269 268 268 268 268 268 268 268 267 267 268 268 268 268 268 268 268 268 269 268 267 267 267 268 268 266 263 263 262 262 262 263 263 264 264 265 266 266 267 268 268 266 265 265 264 264 263 264 264 265 267 268 270 271 272 273 274 276 277 278 279 280 281 282 283 283 284 285 286 287 288 288 288 289 289 289 290 291 292 292 293 293 293 293 292
271 270 269 269 268 268 268 268 267 267 267 267 267 267 267 267 267 268 268 268 267 266 265 265 264 263 262 261 262 262 263 264 265 266 265 265 266 266 266 266 266 265 264 263 263 263 262 262 263 265 267 268 269 271 273 274 275 276 277 278 279 281 282 283 284 284 285 286 287 287 287 287 287 288 289 290 291 291 292 292 292 292 292 292 292
272 272 271 270 270 269 269 268 268 267 266 265 265 265 265 265 266 266 266 266 265 264 264 264 264 263 262 262 262 263 263 264 265 265 265 265 266 266 265 265 264 263 263 262 261 261 260 261 262 265 266 267 269 271 273 275 276 277 278 279 279 281 282 283 284 285 285 286 286 286 285 286 288 289 290 291 291 292 292 292 292 292 292 292 291
273 273 272 272 271 270 270 269 268 267 266 265 264 264 264 264 265 265 266 267 266 265 264 264 264 265 265 265 264 264 264 265 264 263 263 263 264 264 264 263 263 262 262 260 259 258 259 260 262 263 265 267 269 271 273 276 277 278 279 280 280 281 282 283 284 285 285 286 285 285 286 288 289 290 290 291 291 292 292 293 293 292 292 292 292
275 275 274 273 272 271 271 270 270 269 268 267 266 266 266 266 267 267 267 268 269 269 268 266 264 263 264 264 263 263 264 263 262 261 261 262 262 263 262 262 262 262 260 258 257 257 258 259 261 262 264 266 269 272 274 276 277 278 279 280 281 282 283 283 285 286 286 285 286 287 289 290 290 290 290 291 292 292 293 293 293 292 292 293 293
277 277 276 275 274 273 273 273 272 271 270 270 269 268 269 269 269 269 268 268 269 269 268 267 265 263 262 262 261 260 260 260 259 260 261 261 261 261 260 260 261 261 258 256 256 256 258 259 259 260 263 265 268 270 272 274 276 277 279 281 282 283 283 284 285 285 286 286 288 290 291 291 291 291 292 293 293 293 294 294 294 293 293 293 293
278 279 278 277 276 276 276 276 275 274 273 273 272 270 270 270 270 270 269 269 269 269 268 266 265 263 262 261 260 259 259 258 258 259 260 259 259 259 257 256 257 258 257 256 256 256 258 258 258 259 261 263 265 269 271 273 274 276 278 280 282 283 284 285 285 285 286 288 290 291 291 291 292 292 294 295 295 296 296 296 295 295 294 294 294
279 279 279 279 278 278 278 277 277 276 275 274 274 272 271 271 271 271 270 270 269 269 268 267 265 263 262 261 261 260 259 258 258 258 258 257 257 256 255 254 255 255 255 256 259 259 258 256 256 258 260 262 265 268 270 272 273 275 277 279 281 283 285 286 286 286 287 289 291 292 292 292 293 294 295 296 296 297 297 297 296 296 296 296 295
281 280 280 280 280 280 279 278 278 277 276 275 274 274 273 273 272 271 271 270 269 268 268 267 265 264 262 261 260 260 259 258 258 258 257 256 256 255 255 255 254 253 253 256 259 258 255 254 256 258 259 262 265 268 269 271 272 274 276 278 280 283 285 286 287 288 289 290 291 292 292 293 293 295 296 297 297 298 299 299 299 299 298 298 297
283 283 283 283 282 282 281 280 279 278 277 276 275 274 274 274 273 272 271 271 270 269 268 267 266 265 263 261 259 259 259 258 258 257 257 257 257 256 255 255 253 252 252 254 255 254 253 255 258 259 259 261 264 266 268 270 271 273 276 278 280 282 284 285 287 288 289 290 291 291 291 292 294 296 297 298 299 300 301 301 301 301 300 300 300
286 287 287 286 286 284 283 282 281 280 279 278 277 276 275 274 274 272 271 270 270 269 267 267 266 264 263 261 259 259 258 258 257 258 258 258 257 256 255 254 253 251 251 252 253 252 253 256 257 257 258 259 262 264 267 268 270 272 276 278 280 280 281 283 286 288 290 291 291 291 291 292 294 296 297 298 299 300 301 301 302 303 304 304 304
290 291 292 291 290 288 286 285 283 282 281 280 279 278 276 275 274 273 271 270 269 268 266 266 265 263 262 260 259 259 258 258 257 257 257 257 256 255 253 253 252 251 250 250 250 250 251 252 253 255 257 259 261 263 265 267 269 271 274 277 277 277 279 282 285 288 290 291 291 291 292 293 295 295 296 298 299 300 301 302 304 306 308 309 309
295 296 297 296 295 292 290 288 286 285 284 284 282 280 278 276 275 273 272 270 268 266 265 264 263 261 260 258 258 257 257 257 256 255 254 253 252 250 249 247 246 244 243 244 245 246 248 249 252 255 257 259 259 261 264 266 268 270 272 273 273 275 278 282 285 287 289 289 288 290 292 293 294 295 296 297 299 300 301 304 307 309 313 315 316
301 302 302 302 301 299 297 295 294 293 291 290 288 286 284 281 278 275 273 271 269 266 264 263 261 260 258 256 256 255 254 254 254 254 252 250 247 244 243 241 239 238 238 241 244 247 250 252 253 255 256 256 257 260 263 265 267 269 270 270 271 275 278 281 284 286 285 284 285 288 290 291 293 295 295 296 297 298 300 304 308 313 317 321 322
305 307 309 309 309 308 306 305 304 303 301 299 296 293 290 288 284 279 276 273 270 268 265 262 260 259 256 255 254 254 253 252 252 253 252 250 246 243 242 242 242 243 244 246 247 250 253 254 254 254 254 255 257 260 262 264 266 267 268 269 271 274 277 280 282 282 280 281 283 285 287 288 291 293 294 295 296 297 299 304 311 317 322 325 328
309 311 314 317 316 315 314 313 312 311 310 308 306 303 300 297 293 288 282 276 271 269 265 261 258 256 254 253 253 252 251 250 249 248 247 246 243 242 243 244 245 246 247 248 250 252 254 254 253 253 254 256 258 260 262 264 265 266 267 269 271 272 274 276 277 276 276 277 279 280 281 284 287 289 291 293 295 297 299 304 312 319 324 328 332
314 316 319 321 322 322 321 320 319 318 318 318 317 316 314 310 305 299 293 285 277 272 269 264 258 255 253 252 251 249 247 246 244 242 240 240 241 242 244 245 246 246 247 249 251 253 253 252 253 254 255 257 259 261 262 263 263 264 266 267 267 267 269 270 271 271 272 273 274 275 276 279 282 285 286 288 291 295 298 303 312 321 326 330 334
323 324 324 325 327 327 327 326 326 326 327 328 327 325 322 317 312 307 302 295 285 278 273 269 262 258 254 252 250 247 243 242 242 241 240 242 245 245 245 246 248 248 249 250 252 252 251 251 252 253 254 256 258 259 260 260 261 261 262 261 261 262 264 265 266 267 268 268 269 270 271 272 275 278 281 284 288 292 298 304 313 321 327 331 336
330 332 332 333 333 334 335 334 334 336 339 339 337 335 332 327 320 314 308 303 296 287 280 274 267 262 256 253 251 248 243 240 240 241 241 243 246 248 247 247 249 249 249 249 250 250 249 249 251 252 253 254 255 256 258 258 258 257 257 257 257 257 259 261 262 262 262 263 263 263 264 265 267 270 276 281 284 288 294 302 312 322 327 332 338
329 333 337 340 340 340 340 339 340 343 346 345 344 343 340 337 333 328 321 316 311 302 292 283 275 268 261 255 251 248 243 240 239 240 241 244 247 247 245 244 245 245 246 247 248 248 249 249 250 251 251 252 252 253 254 254 254 253 253 254 254 254 255 255 255 255 255 256 256 255 257 259 260 263 269 274 279 284 291 300 312 321 326 331 338
323 328 334 338 339 339 341 343 346 348 349 349 349 349 346 345 347 347 343 337 332 325 315 303 290 279 268 258 250 246 243 240 238 237 239 242 242 240 238 238 240 241 243 245 246 247 248 249 249 248 248 249 249 249 250 250 250 251 250 249 249 249 248 247 247 247 247 247 248 250 253 255 255 258 262 268 275 282 290 300 311 318 322 328 336
328 331 334 338 342 344 347 349 351 351 351 353 355 355 354 356 1 3 360 354 350 348 345 338 326 309 287 264 249 241 237 237 235 233 233 233 232 231 231 234 236 238 241 243 244 245 247 248 247 245 244 244 243 243 244 245 245 245 244 243 241 240 239 238 239 239 239 240 243 247 250 252 253 254 258 264 272 280 287 295 306 313 318 324 329
350 347 344 344 347 349 349 349 350 351 353 357 360 0 1 5 10 14 14 10 9 12 14 13 10 8 3 325 241 224 222 223 224 223 220 220 221 223 225 228 230 233 236 238 240 242 243 242 240 238 238 237 236 236 238 238 237 235 234 232 230 230 230 230 231 232 233 238 244 248 250 252 253 254 258 265 271 276 281 287 299 310 317 320 325
351 348 345 345 348 350 349 350 352 355 359 2 5 8 11 13 16 20 26 30 32 32 32 32 32 35 44 58 83 125 159 178 189 195 199 203 207 211 215 218 221 223 225 227 229 232 232 230 228 228 228 227 227 228 230 230 228 225 222 220 219 220 221 223 225 230 235 241 247 250 252 253 253 254 260 266 270 272 275 282 295 308 315 318 322
347 347 347 349 352 355 355 357 359 1 5 10 14 17 20 22 22 25 32 40 44 43 42 43 46 49 54 63 77 94 113 130 146 159 170 181 189 195 201 205 208 209 212 216 218 218 218 216 216 216 216 218 220 221 220 218 214 211 209 209 210 213 216 220 225 233 239 244 249 253 255 256 256 258 263 267 270 271 274 281 292 304 311 316 321
350 352 354 358 2 4 6 8 9 11 15 19 22 24 27 29 30 32 38 44 48 47 46 48 54 59 63 69 77 85 97 112 127 139 150 162 174 183 190 195 199 204 209 212 212 211 209 207 205 205 206 208 209 207 204 201 198 197 198 201 205 210 216 222 230 237 243 247 251 255 257 259 260 262 265 267 269 271 275 279 286 296 305 312 317
356 357 2 6 9 11 15 19 24 27 28 28 27 28 30 34 38 42 46 48 49 49 47 48 53 57 62 69 77 84 90 99 109 121 135 148 158 165 172 178 183 187 192 195 196 197 197 197 196 196 196 195 192 188 185 185 186 188 192 198 204 211 220 229 238 246 253 255 257 258 259 260 261 264 266 267 268 270 274 277 280 288 299 307 311
6 9 13 16 18 21 24 28 33 36 37 35 34 34 35 37 41 45 49 49 48 47 45 44 47 50 53 60 72 84 92 99 104 109 118 126 133 139 146 151 156 162 169 174 177 180 182 182 183 184 183 180 175 173 174 177 180 185 191 198 207 218 230 242 253 261 265 265 264 262 261 262 264 266 267 268 269 270 272 274 276 282 291 300 304